| time (UTC) | temp C | wind direction | speed KPH | gust KPH | rain 1hr cm | rain 24hr cm | rain mn cm | humidity % | barometer mb |
| 20260507100003 | 2 | 296 | 0.0 | 1.6 | 0.00 | 0.00 | 0.00 | 49 | |
| 20260507095403 | 2 | 296 | 0.0 | 1.6 | 0.00 | 0.00 | 0.00 | 49 | |
| 20260507094504 | 2 | 296 | 0.0 | 4.8 | 0.00 | 0.00 | 0.00 | 51 | |
| 20260507093603 | 2 | 297 | 0.0 | 3.2 | 0.00 | 0.00 | 0.00 | 55 | |
| 20260507092914 | 2 | 297 | 0.0 | 1.6 | 0.00 | 0.00 | 0.00 | 54 | |
| 20260507091803 | 2 | 359 | 1.6 | 6.4 | 0.00 | 0.00 | 0.00 | 48 | |
| 20260507090903 | 3 | 36 | 0.0 | 1.6 | 0.00 | 0.00 | 0.00 | 51 | |
| 20260507090214 | 3 | 36 | 0.0 | 3.2 | 0.00 | 0.00 | 0.00 | 51 | |
| 20260507085403 | 3 | 36 | 1.6 | 4.8 | 0.00 | 0.00 | 0.00 | 49 | |
| 20260507084503 | 3 | 36 | 0.0 | 1.6 | 0.00 | 0.00 | 0.00 | 49 | |
| 20260507083603 | 3 | 52 | 3.2 | 6.4 | 0.00 | 0.00 | 0.00 | 52 | |
| 20260507082703 | 3 | 59 | 3.2 | 4.8 | 0.00 | 0.00 | 0.00 | 51 | |
| 20260507081803 | 3 | 59 | 1.6 | 3.2 | 0.00 | 0.00 | 0.00 | 47 | |
| 20260507080903 | 3 | 59 | 1.6 | 4.8 | 0.00 | 0.00 | 0.00 | 48 | |
| 20260507080003 | 3 | 59 | 1.6 | 4.8 | 0.00 | 0.00 | 0.00 | 47 | |
| 20260507075403 | 3 | 61 | 1.6 | 4.8 | 0.00 | 0.00 | 0.00 | 46 | |
| 20260507074503 | 4 | 55 | 3.2 | 6.4 | 0.00 | 0.00 | 0.00 | 45 | |
| 20260507073603 | 5 | 34 | 1.6 | 6.4 | 0.00 | 0.00 | 0.00 | 44 | |
| 20260507072703 | 6 | 2 | 6.4 | 11.3 | 0.00 | 0.00 | 0.00 | 41 | |
| 20260507072012 | 6 | 354 | 8.0 | 11.3 | 0.00 | 0.00 | 0.00 | 42 | |
| 20260507070903 | 6 | 341 | 6.4 | 11.3 | 0.00 | 0.00 | 0.00 | 40 | |
| 20260507070213 | 6 | 342 | 6.4 | 9.7 | 0.00 | 0.00 | 0.00 | 42 | |
| 20260507065403 | 6 | 27 | 4.8 | 8.0 | 0.00 | 0.00 | 0.00 | 43 | |
| 20260507064503 | 5 | 52 | 3.2 | 6.4 | 0.00 | 0.00 | 0.00 | 46 | |
| 20260507063813 | 5 | 67 | 1.6 | 6.4 | 0.00 | 0.00 | 0.00 | 46 | |
| 20260507062703 | 5 | 91 | 1.6 | 3.2 | 0.00 | 0.00 | 0.00 | 44 | |
| 20260507061803 | 6 | 90 | 0.0 | 4.8 | 0.00 | 0.00 | 0.00 | 44 | |
| 20260507060903 | 7 | 90 | 0.0 | 4.8 | 0.00 | 0.00 | 0.00 | 39 | |
| 20260507060005 | 8 | 90 | 1.6 | 6.4 | 0.00 | 0.00 | 0.00 | 40 | |
| 20260507055403 | 9 | 90 | 1.6 | 6.4 | 0.00 | 0.00 | 0.00 | 37 | |
| 20260507054503 | 9 | 89 | 3.2 | 9.7 | 0.00 | 0.00 | 0.00 | 34 | |
| 20260507053813 | 7 | 87 | 3.2 | 11.3 | 0.00 | 0.00 | 0.00 | 37 | |
| 20260507052703 | 6 | 39 | 1.6 | 4.8 | 0.00 | 0.00 | 0.00 | 41 | |
| 20260507051803 | 7 | 47 | 1.6 | 4.8 | 0.00 | 0.00 | 0.00 | 40 | |
| 20260507050904 | 7 | 0 | 0.0 | 0.0 | 0.00 | 0.00 | 0.00 | 37 | |
| 20260507050003 | 8 | 47 | 0.0 | 3.2 | 0.00 | 0.00 | 0.00 | 36 | |
| 20260507045403 | 8 | 46 | 0.0 | 1.6 | 0.00 | 0.00 | 0.00 | 35 | |
| 20260507044503 | 8 | 46 | 0.0 | 1.6 | 0.00 | 0.00 | 0.00 | 35 | |
| 20260507043603 | 9 | 47 | 0.0 | 4.8 | 0.00 | 0.00 | 0.00 | 35 | |
| 20260507042703 | 9 | 47 | 0.0 | 4.8 | 0.00 | 0.00 | 0.00 | 35 | |
| 20260507041803 | 9 | 33 | 1.6 | 4.8 | 0.00 | 0.00 | 0.00 | 35 | |
| 20260507040903 | 9 | 38 | 1.6 | 4.8 | 0.00 | 0.00 | 0.00 | 34 | |
| 20260507040004 | 10 | 38 | 1.6 | 6.4 | 0.00 | 0.00 | 0.00 | 33 | |
| 20260507035403 | 10 | 41 | 1.6 | 6.4 | 0.00 | 0.00 | 0.00 | 33 | |
| 20260507034503 | 9 | 41 | 1.6 | 6.4 | 0.00 | 0.00 | 0.00 | 33 | |
| 20260507033603 | 9 | 27 | 0.0 | 4.8 | 0.00 | 0.00 | 0.00 | 33 | |
| 20260507032703 | 10 | 0 | 0.0 | 0.0 | 0.00 | 0.00 | 0.00 | 32 | |
| 20260507031803 | 11 | 0 | 0.0 | 0.0 | 0.00 | 0.00 | 0.00 | 32 | |
| 20260507030903 | 12 | 10 | 4.8 | 16.1 | 0.00 | 0.00 | 0.00 | 29 | |
| 20260507030003 | 12 | 360 | 6.4 | 17.7 | 0.00 | 0.00 | 0.00 | 28 | |
| 20260507025403 | 12 | 356 | 6.4 | 16.1 | 0.00 | 0.00 | 0.00 | 29 | |
| 20260507024503 | 13 | 348 | 9.7 | 17.7 | 0.00 | 0.00 | 0.00 | 28 | |
| 20260507023603 | 13 | 352 | 8.0 | 19.3 | 0.00 | 0.00 | 0.00 | 28 | |
| 20260507022703 | 13 | 352 | 9.7 | 19.3 | 0.00 | 0.00 | 0.00 | 27 | |
| 20260507021803 | 14 | 348 | 9.7 | 20.9 | 0.00 | 0.00 | 0.00 | 26 | |
| 20260507020903 | 14 | 349 | 9.7 | 22.5 | 0.00 | 0.00 | 0.00 | 26 | |
| 20260507020003 | 15 | 351 | 9.7 | 20.9 | 0.00 | 0.00 | 0.00 | 26 | |
| 20260507015403 | 15 | 354 | 11.3 | 20.9 | 0.00 | 0.00 | 0.00 | 25 | |
| 20260507014503 | 15 | 357 | 12.9 | 25.7 | 0.00 | 0.00 | 0.00 | 25 | |
| 20260507013603 | 15 | 360 | 12.9 | 22.5 | 0.00 | 0.00 | 0.00 | 26 | |
| 20260507012703 | 16 | 353 | 12.9 | 22.5 | 0.00 | 0.00 | 0.00 | 27 | |
| 20260507011803 | 16 | 356 | 12.9 | 27.4 | 0.00 | 0.00 | 0.00 | 28 | |
| 20260507010903 | 16 | 2 | 16.1 | 30.6 | 0.00 | 0.00 | 0.00 | 26 | |
| 20260507010003 | 16 | 358 | 14.5 | 25.7 | 0.00 | 0.00 | 0.00 | 26 | |
| 20260507005403 | 16 | 354 | 12.9 | 25.7 | 0.00 | 0.00 | 0.00 | 26 | |
| 20260507004503 | 17 | 352 | 14.5 | 27.4 | 0.00 | 0.00 | 0.00 | 27 | |
| 20260507003603 | 17 | 352 | 14.5 | 24.1 | 0.00 | 0.00 | 0.00 | 26 | |
| 20260507002703 | 17 | 350 | 16.1 | 29.0 | 0.00 | 0.00 | 0.00 | 27 | |
| 20260507001803 | 17 | 359 | 12.9 | 22.5 | 0.00 | 0.00 | 0.00 | 26 | |
| 20260507000905 | 17 | 354 | 16.1 | 30.6 | 0.00 | 0.00 | 0.00 | 28 | |
| 20260507000003 | 17 | 355 | 16.1 | 29.0 | 0.00 | 0.00 | 0.00 | 26 | |
| 20260506235403 | 17 | 340 | 17.7 | 29.0 | 0.00 | 0.00 | 0.00 | 27 | |
| 20260506234503 | 17 | 345 | 17.7 | 38.6 | 0.00 | 0.00 | 0.00 | 28 | |
| 20260506233603 | 17 | 335 | 16.1 | 38.6 | 0.00 | 0.00 | 0.00 | 28 | |
| 20260506232914 | 17 | 351 | 16.1 | 27.4 | 0.00 | 0.00 | 0.00 | 27 | |
| 20260506231803 | 17 | 350 | 16.1 | 29.0 | 0.00 | 0.00 | 0.00 | 25 | |
| 20260506230903 | 17 | 353 | 17.7 | 29.0 | 0.00 | 0.00 | 0.00 | 26 | |
| 20260506230003 | 17 | 336 | 20.9 | 30.6 | 0.00 | 0.00 | 0.00 | 28 | |
| 20260506225403 | 17 | 338 | 19.3 | 33.8 | 0.00 | 0.00 | 0.00 | 29 | |
| 20260506224503 | 17 | 355 | 19.3 | 33.8 | 0.00 | 0.00 | 0.00 | 30 | |
| 20260506223603 | 17 | 358 | 17.7 | 30.6 | 0.00 | 0.00 | 0.00 | 29 | |
| 20260506222703 | 17 | 345 | 19.3 | 33.8 | 0.00 | 0.00 | 0.00 | 28 | |
| 20260506221803 | 17 | 343 | 17.7 | 33.8 | 0.00 | 0.00 | 0.00 | 31 | |
| 20260506220903 | 17 | 351 | 19.3 | 33.8 | 0.00 | 0.00 | 0.00 | 30 | |
| 20260506220003 | 17 | 332 | 22.5 | 35.4 | 0.00 | 0.00 | 0.00 | 30 | |
| 20260506215403 | 17 | 340 | 19.3 | 35.4 | 0.00 | 0.00 | 0.00 | 33 | |
| 20260506214503 | 17 | 10 | 16.1 | 38.6 | 0.00 | 0.00 | 0.00 | 31 | |
| 20260506213814 | 17 | 355 | 16.1 | 30.6 | 0.00 | 0.00 | 0.00 | 32 | |
| 20260506212703 | 17 | 342 | 17.7 | 32.2 | 0.00 | 0.00 | 0.00 | 37 | |
| 20260506212013 | 17 | 352 | 16.1 | 35.4 | 0.00 | 0.00 | 0.00 | 35 | |
| 20260506211114 | 17 | 343 | 17.7 | 33.8 | 0.00 | 0.00 | 0.00 | 34 | |
| 20260506210213 | 16 | 3 | 17.7 | 33.8 | 0.00 | 0.00 | 0.00 | 34 | |
| 20260506205613 | 16 | 357 | 19.3 | 35.4 | 0.00 | 0.00 | 0.00 | 33 | |
| 20260506204503 | 17 | 341 | 19.3 | 33.8 | 0.00 | 0.00 | 0.00 | 37 | |
| 20260506203603 | 16 | 353 | 19.3 | 40.2 | 0.00 | 0.00 | 0.00 | 35 | |
| 20260506202703 | 16 | 338 | 22.5 | 37.0 | 0.00 | 0.00 | 0.00 | 36 | |
| 20260506201803 | 16 | 335 | 20.9 | 37.0 | 0.00 | 0.00 | 0.00 | 40 | |
| 20260506200903 | 16 | 340 | 20.9 | 37.0 | 0.00 | 0.00 | 0.00 | 40 | |
| 20260506200004 | 16 | 345 | 19.3 | 35.4 | 0.00 | 0.00 | 0.00 | 39 | |
| 20260506195404 | 16 | 338 | 20.9 | 35.4 | 0.00 | 0.00 | 0.00 | 38 | |
| 20260506194503 | 16 | 331 | 22.5 | 41.8 | 0.00 | 0.00 | 0.00 | 40 | |
| 20260506193603 | 16 | 347 | 19.3 | 33.8 | 0.00 | 0.00 | 0.00 | 41 | |
| 20260506192912 | 16 | 346 | 19.3 | 35.4 | 0.00 | 0.00 | 0.00 | 45 | |
| 20260506191803 | 16 | 341 | 20.9 | 33.8 | 0.00 | 0.00 | 0.00 | 43 | |
| 20260506190903 | 15 | 349 | 19.3 | 33.8 | 0.00 | 0.00 | 0.00 | 44 | |
| 20260506190004 | 16 | 345 | 16.1 | 33.8 | 0.00 | 0.00 | 0.00 | 45 | |
| 20260506185403 | 16 | 340 | 14.5 | 30.6 | 0.00 | 0.00 | 0.00 | 43 | |
| 20260506184503 | 16 | 18 | 12.9 | 29.0 | 0.00 | 0.00 | 0.00 | 46 | |
| 20260506183603 | 15 | 343 | 19.3 | 30.6 | 0.00 | 0.00 | 0.00 | 46 | |
| 20260506182704 | 15 | 343 | 14.5 | 30.6 | 0.00 | 0.00 | 0.00 | 47 | |
| 20260506181803 | 15 | 353 | 16.1 | 32.2 | 0.00 | 0.00 | 0.00 | 48 | |
| 20260506181113 | 15 | 359 | 12.9 | 27.4 | 0.00 | 0.00 | 0.00 | 48 | |
| 20260506180214 | 15 | 357 | 14.5 | 29.0 | 0.00 | 0.00 | 0.00 | 49 | |
| 20260506175403 | 15 | 353 | 17.7 | 32.2 | 0.00 | 0.00 | 0.00 | 50 | |
| 20260506174503 | 15 | 2 | 14.5 | 30.6 | 0.00 | 0.00 | 0.00 | 49 | |
| 20260506173603 | 15 | 360 | 14.5 | 27.4 | 0.00 | 0.00 | 0.00 | 47 | |
| 20260506172703 | 15 | 345 | 9.7 | 22.5 | 0.00 | 0.00 | 0.00 | 47 | |
| 20260506171803 | 15 | 333 | 12.9 | 24.1 | 0.00 | 0.00 | 0.00 | 52 | |
| 20260506170903 | 14 | 348 | 12.9 | 20.9 | 0.00 | 0.00 | 0.00 | 50 | |
| 20260506170214 | 14 | 348 | 11.3 | 20.9 | 0.00 | 0.00 | 0.00 | 50 | |
| 20260506165403 | 14 | 354 | 12.9 | 27.4 | 0.00 | 0.00 | 0.00 | 48 | |
| 20260506164503 | 14 | 12 | 11.3 | 22.5 | 0.00 | 0.00 | 0.00 | 47 | |
| 20260506163603 | 14 | 356 | 11.3 | 29.0 | 0.00 | 0.00 | 0.00 | 48 | |
| 20260506162913 | 14 | 349 | 8.0 | 19.3 | 0.00 | 0.00 | 0.00 | 47 | |
| 20260506162013 | 13 | 15 | 6.4 | 14.5 | 0.00 | 0.00 | 0.00 | 48 | |
| 20260506160903 | 13 | 327 | 4.8 | 11.3 | 0.00 | 0.00 | 0.00 | 48 | |
| 20260506160003 | 13 | 319 | 1.6 | 8.0 | 0.00 | 0.00 | 0.00 | 47 | |
| 20260506155403 | 12 | 320 | 1.6 | 4.8 | 0.00 | 0.00 | 0.00 | 48 | |
| 20260506154503 | 12 | 319 | 1.6 | 4.8 | 0.00 | 0.00 | 0.00 | 49 | |
| 20260506153603 | 11 | 319 | 3.2 | 6.4 | 0.00 | 0.00 | 0.00 | 48 | |
| 20260506152703 | 11 | 345 | 3.2 | 8.0 | 0.00 | 0.00 | 0.00 | 48 | |
| 20260506151803 | 11 | 356 | 3.2 | 6.4 | 0.00 | 0.00 | 0.00 | 49 | |
| 20260506150903 | 11 | 355 | 3.2 | 8.0 | 0.00 | 0.00 | 0.00 | 51 | |
| 20260506150003 | 11 | 315 | 4.8 | 8.0 | 0.00 | 0.00 | 0.00 | 52 | |
| 20260506145403 | 11 | 312 | 4.8 | 8.0 | 0.00 | 0.00 | 0.00 | 51 | |
| 20260506144503 | 10 | 312 | 3.2 | 6.4 | 0.00 | 0.00 | 0.00 | 58 | |
| 20260506143813 | 9 | 311 | 3.2 | 6.4 | 0.00 | 0.00 | 0.00 | 58 | |
| 20260506142703 | 8 | 311 | 3.2 | 6.4 | 0.00 | 0.00 | 0.00 | 57 | |
| 20260506141803 | 9 | 311 | 4.8 | 6.4 | 0.00 | 0.00 | 0.00 | 57 | |
| 20260506140903 | 9 | 274 | 3.2 | 9.7 | 0.00 | 0.00 | 0.00 | 58 | |
| 20260506140213 | 8 | 242 | 0.0 | 3.2 | 0.00 | 0.00 | 0.00 | 58 | |
| 20260506135403 | 7 | 0 | 0.0 | 0.0 | 0.00 | 0.00 | 0.00 | 58 | |
| 20260506134503 | 7 | 241 | 0.0 | 1.6 | 0.00 | 0.00 | 0.00 | 57 | |
| 20260506133603 | 7 | 0 | 0.0 | 0.0 | 0.00 | 0.00 | 0.00 | 57 | |
| 20260506132703 | 7 | 239 | 1.6 | 6.4 | 0.00 | 0.00 | 0.00 | 57 | |
| 20260506132014 | 7 | 178 | 0.0 | 1.6 | 0.00 | 0.00 | 0.00 | 54 | |
| 20260506130903 | 7 | 178 | 0.0 | 1.6 | 0.00 | 0.00 | 0.00 | 54 | |
| 20260506130214 | 7 | 0 | 0.0 | 0.0 | 0.00 | 0.00 | 0.00 | 53 | |
| 20260506125403 | 7 | 178 | 0.0 | 1.6 | 0.00 | 0.00 | 0.00 | 52 | |
| 20260506124503 | 7 | 178 | 0.0 | 3.2 | 0.00 | 0.00 | 0.00 | 51 | |
| 20260506123603 | 7 | 178 | 0.0 | 3.2 | 0.00 | 0.00 | 0.00 | 51 | |
| 20260506122703 | 8 | 178 | 3.2 | 4.8 | 0.00 | 0.00 | 0.00 | 50 | |
| 20260506122013 | 8 | 184 | 3.2 | 6.4 | 0.00 | 0.00 | 0.00 | 50 | |
| 20260506120903 | 8 | 235 | 3.2 | 6.4 | 0.00 | 0.00 | 0.00 | 50 | |
| 20260506120003 | 8 | 298 | 0.0 | 4.8 | 0.00 | 0.00 | 0.00 | 51 | |
| 20260506115614 | 8 | 299 | 0.0 | 1.6 | 0.00 | 0.00 | 0.00 | 52 | |
| 20260506114503 | 8 | 0 | 0.0 | 0.0 | 0.00 | 0.00 | 0.00 | 51 | |
| 20260506113603 | 8 | 299 | 1.6 | 6.4 | 0.00 | 0.00 | 0.00 | 52 | |
| 20260506112703 | 9 | 246 | 1.6 | 8.0 | 0.00 | 0.00 | 0.00 | 52 | |
| 20260506112013 | 8 | 169 | 1.6 | 4.8 | 0.00 | 0.00 | 0.00 | 47 | |
| 20260506110903 | 8 | 169 | 0.0 | 4.8 | 0.00 | 0.00 | 0.00 | 49 | |
| 20260506110003 | 8 | 169 | 1.6 | 3.2 | 0.00 | 0.00 | 0.00 | 49 | |
| 20260506105403 | 8 | 169 | 1.6 | 3.2 | 0.00 | 0.00 | 0.00 | 49 | |
| 20260506104503 | 8 | 169 | 1.6 | 4.8 | 0.00 | 0.00 | 0.00 | 48 | |
| 20260506103603 | 8 | 141 | 3.2 | 9.7 | 0.00 | 0.00 | 0.00 | 48 | |
| 20260506102703 | 8 | 137 | 3.2 | 9.7 | 0.00 | 0.00 | 0.00 | 48 | |
| 20260506101803 | 7 | 145 | 3.2 | 6.4 | 0.00 | 0.00 | 0.00 | 49 | |
| 20260506100903 | 7 | 138 | 3.2 | 6.4 | 0.00 | 0.00 | 0.00 | 48 |